Weather History for Tekamah, NE

Change the Weather History Date:

Wednesday, July 24, 2013

  Actual Average Record
Temperature  
Mean Temperature 70 °F -  
Max Temperature 84 °F 86 °F 102 °F (2012)
Min Temperature 55 °F 63 °F 53 °F (2004)
Cooling Degree Days 4    
Growing Degree Days 20 (Base 50)    
Moisture  
Dew Point 59 °F    
Average Humidity 67    
Maximum Humidity 90    
Minimum Humidity 43    
Precipitation  
Precipitation 0.00 in - - ()
Sea Level Pressure  
Sea Level Pressure 30.02 in    
Wind  
Wind Speed 4 mph (North)    
Max Wind Speed 7 mph    
Max Gust Speed -    
Visibility 9 miles    
Events      
Averages and records for this station are not official NWS values.
T = Trace of Precipitation, MM = Missing Value Source: NWS Daily Summary

Daily Weather History Graph

Daily Weather History Graph

Search for Another Location

Airport:

Trip Planner

Search our weather history database for the weather conditions in past years. The results will help you decide how hot, cold, wet, or windy it might be!

Date:

Astronomy

Jul. 24, 2013 Rise Set
Actual Time 6:11 AM CDT 8:50 PM CDT
Civil Twilight 5:39 AM CDT 9:22 PM CDT
Nautical Twilight 4:58 AM CDT 10:02 PM CDT
Astronomical Twilight 4:12 AM CDT 10:48 PM CDT
Moon 9:53 PM CDT (7/24) 8:35 AM CDT (7/24)
Length of Visible Light 15h 43m
Length of Day
14h 39m
Waning Gibbous, 94% of the Moon is Illuminated
Jul 24
Waning Gibbous
Jul 29
Last Quarter
Aug 6
New
Aug 14
First Quarter
Aug 20
Full

Hourly Weather History & Observations

Time (CDT) Temp. Heat Index Dew Point Humidity Pressure Visibility Wind Dir Wind Speed Gust Speed Precip Events Conditions
12:54 AM 62.1 °F - 57.9 °F 86% 30.01 in 10.0 mi NNW 5.8 mph - N/A   Clear
1:54 AM 60.1 °F - 57.0 °F 90% 30.01 in 10.0 mi NNW 5.8 mph - N/A   Clear
2:54 AM 60.1 °F - 55.9 °F 86% 30.02 in 10.0 mi WNW 3.5 mph - N/A   Clear
3:54 AM 60.1 °F - 55.0 °F 83% 30.02 in 10.0 mi Calm Calm - N/A   Clear
4:54 AM 57.9 °F - 54.0 °F 87% 30.01 in 10.0 mi North 4.6 mph - N/A   Clear
5:54 AM 55.9 °F - 53.1 °F 90% 30.04 in 10.0 mi NNW 5.8 mph - N/A   Clear
6:54 AM 59.0 °F - 55.0 °F 87% 30.06 in 8.0 mi North 3.5 mph - N/A   Clear
7:54 AM 64.0 °F - 57.9 °F 80% 30.06 in 9.0 mi NNE 3.5 mph - N/A   Clear
8:54 AM 68.0 °F - 59.0 °F 73% 30.07 in 6.0 mi NNW 4.6 mph - N/A   Haze
9:54 AM 72.0 °F - 57.9 °F 61% 30.07 in 10.0 mi Calm Calm - N/A   Clear
10:54 AM 75.9 °F - 59.0 °F 56% 30.06 in 10.0 mi Variable 3.5 mph - N/A   Clear
11:54 AM 78.1 °F - 60.1 °F 54% 30.06 in 10.0 mi Variable 6.9 mph - N/A   Clear
12:54 PM 80.1 °F 80.7 °F 59.0 °F 48% 30.06 in 10.0 mi North 5.8 mph - N/A   Scattered Clouds
1:54 PM 82.0 °F 82.4 °F 60.1 °F 47% 30.04 in 10.0 mi North 4.6 mph - N/A   Partly Cloudy
2:54 PM 84.0 °F 84.0 °F 60.1 °F 44% 30.02 in 10.0 mi Variable 5.8 mph - N/A   Clear
3:54 PM 84.0 °F 84.0 °F 60.1 °F 44% 30.01 in 10.0 mi Calm Calm - N/A   Partly Cloudy
4:54 PM 84.0 °F 84.0 °F 60.1 °F 44% 30.00 in 10.0 mi Calm Calm - N/A   Mostly Cloudy
5:54 PM 84.0 °F 83.8 °F 59.0 °F 43% 29.99 in 10.0 mi East 4.6 mph - N/A   Mostly Cloudy
6:54 PM 82.0 °F 82.1 °F 59.0 °F 45% 29.99 in 10.0 mi Calm Calm - N/A   Scattered Clouds
7:54 PM 79.0 °F - 62.1 °F 56% 29.99 in 10.0 mi ESE 3.5 mph - N/A   Clear
8:54 PM 73.9 °F - 63.0 °F 68% 29.98 in 8.0 mi Calm Calm - N/A   Clear
9:54 PM 70.0 °F - 63.0 °F 78% 29.98 in 9.0 mi East 3.5 mph - N/A   Clear
10:54 PM 68.0 °F - 62.1 °F 81% 30.01 in 8.0 mi South 3.5 mph - N/A   Clear
11:54 PM 66.9 °F - 62.1 °F 84% 30.01 in 8.0 mi Calm Calm - N/A   Clear